Total_Precipitation_Accumulation
0.04 0.07 0.12 0.12 0.09 0.08 0.08 0.08 0.10 0.13 0.20 0.29 0.40 0.46 0.53 0.57 0.57 0.58 0.53 0.53 0.66 0.79 0.93 0.92 0.85 0.79 0.84 1.06 1.26 1.48 1.74 1.82 1.84 1.90 2.00 2.12 2.26 2.29 2.29 2.29 2.25 2.39 2.37 2.27
0.06 0.08 0.09 0.08 0.07 0.07 0.07 0.07 0.08 0.13 0.22 0.32 0.42 0.47 0.46 0.50 0.49 0.53 0.61 0.67 0.81 0.95 1.06 1.17 1.20 1.19 1.23 1.37 1.63 1.91 2.20 2.33 2.44 2.50 2.55 2.61 2.64 2.66 2.71 2.67 2.61 2.53 2.41 2.43
0.12 0.12 0.12 0.10 0.09 0.09 0.09 0.11 0.12 0.18 0.27 0.41 0.54 0.52 0.58 0.62 0.59 0.67 0.74 0.84 0.95 1.05 1.12 1.25 1.31 1.39 1.56 1.73 1.95 2.17 2.34 2.45 2.59 2.70 2.82 2.92 2.93 2.92 2.80 2.74 2.66 2.53 2.53 2.57
0.19 0.23 0.25 0.15 0.16 0.19 0.22 0.25 0.28 0.30 0.37 0.46 0.58 0.60 0.64 0.67 0.66 0.68 0.80 0.98 1.01 1.07 1.17 1.24 1.38 1.55 1.72 1.81 1.96 2.27 2.45 2.52 2.59 2.64 2.74 2.89 3.05 2.98 2.82 2.75 2.69 2.64 2.59 2.48
0.32 0.29 0.31 0.30 0.27 0.29 0.38 0.47 0.44 0.59 0.66 0.61 0.64 0.70 0.72 0.72 0.87 0.88 0.88 0.97 1.03 1.14 1.23 1.34 1.40 1.46 1.49 1.58 1.75 1.98 2.20 2.36 2.35 2.48 2.69 2.79 2.83 2.84 2.88 2.82 2.63 2.48 2.36 2.30
0.47 0.49 0.46 0.45 0.47 0.38 0.43 0.76 0.76 0.85 0.94 0.88 0.90 1.08 1.00 0.77 0.77 0.84 0.91 0.98 1.09 1.23 1.29 1.29 1.30 1.32 1.40 1.55 1.77 1.98 2.19 2.37 2.51 2.61 2.75 2.81 2.86 2.96 2.96 2.90 2.85 2.80 2.64 2.49
0.53 0.58 0.57 0.50 0.46 0.47 0.80 1.07 1.05 1.13 1.16 1.09 1.13 1.16 1.07 0.91 0.85 0.83 0.89 0.97 1.06 1.22 1.35 1.35 1.36 1.50 1.63 1.76 1.93 2.11 2.22 2.30 2.41 2.55 2.71 2.93 3.13 3.08 3.03 2.96 2.85 2.65 2.46 2.32
0.74 0.94 1.05 0.77 0.69 0.91 1.08 0.85 0.91 1.09 1.30 1.31 1.25 1.17 1.08 0.99 0.91 0.82 0.78 0.86 1.04 1.18 1.31 1.45 1.58 1.73 1.86 1.89 1.96 2.12 2.30 2.37 2.42 2.56 2.60 2.69 2.83 2.80 2.75 2.74 2.71 2.64 2.58 2.49
1.07 1.24 1.13 0.95 0.97 0.92 0.98 1.12 1.18 1.29 1.49 1.50 1.35 1.22 1.22 1.14 1.01 0.90 0.88 0.94 1.05 1.17 1.30 1.40 1.58 1.77 1.92 2.02 2.10 2.19 2.28 2.40 2.54 2.60 2.62 2.71 2.84 2.85 2.76 2.66 2.58 2.47 2.39 2.21
1.28 1.42 1.25 1.09 1.06 1.02 1.07 1.26 1.33 1.31 1.34 1.35 1.30 1.24 1.35 1.36 1.20 1.16 1.16 1.15 1.18 1.26 1.33 1.41 1.51 1.68 1.87 2.01 2.06 2.17 2.24 2.29 2.42 2.55 2.65 2.78 2.79 2.67 2.53 2.35 2.25 2.19 2.10 1.99
1.54 1.74 1.66 1.47 1.33 1.24 1.24 1.21 1.29 1.23 1.25 1.24 1.25 1.23 1.31 1.42 1.47 1.40 1.28 1.22 1.25 1.32 1.39 1.44 1.51 1.58 1.80 2.01 2.07 2.09 2.19 2.24 2.22 2.26 2.34 2.45 2.50 2.44 2.30 2.16 2.05 1.98 1.87 1.85
1.90 1.90 2.00 1.87 1.55 1.37 1.42 1.38 1.32 1.28 1.35 1.40 1.36 1.29 1.30 1.43 1.48 1.45 1.37 1.31 1.32 1.34 1.38 1.42 1.52 1.63 1.71 1.95 2.18 2.24 2.21 2.09 2.01 1.93 1.92 1.95 1.94 1.99 2.11 1.99 1.97 1.84 1.73 1.66
1.60 1.85 1.91 1.75 1.57 1.61 1.59 1.57 1.53 1.53 1.51 1.52 1.57 1.51 1.41 1.39 1.42 1.40 1.37 1.34 1.33 1.37 1.43 1.50 1.62 1.66 1.64 1.71 1.94 2.14 2.10 1.96 1.85 1.79 1.79 1.73 1.69 1.70 1.81 1.86 1.81 1.73 1.72 1.60
1.41 1.62 1.85 1.72 1.68 1.66 1.62 1.67 1.69 1.73 1.71 1.63 1.64 1.62 1.51 1.44 1.39 1.38 1.39 1.27 1.18 1.21 1.31 1.39 1.47 1.58 1.63 1.64 1.75 1.86 1.93 1.98 1.84 1.72 1.77 1.78 1.74 1.71 1.73 1.78 1.78 1.69 1.68 1.64
1.38 1.41 1.53 1.51 1.51 1.57 1.53 1.56 1.69 1.79 1.84 1.81 1.75 1.66 1.53 1.51 1.47 1.38 1.26 1.17 1.16 1.20 1.21 1.25 1.32 1.36 1.41 1.54 1.66 1.72 1.76 1.79 1.80 1.79 1.77 1.78 1.79 1.71 1.65 1.63 1.65 1.57 1.52 1.59
1.39 1.27 1.29 1.48 1.56 1.57 1.63 1.67 1.68 1.65 1.60 1.61 1.59 1.58 1.57 1.52 1.43 1.33 1.25 1.23 1.29 1.33 1.29 1.26 1.28 1.27 1.26 1.33 1.54 1.67 1.67 1.82 1.74 1.74 1.75 1.71 1.76 1.77 1.72 1.72 1.68 1.59 1.51 1.53
1.43 1.35 1.38 1.48 1.51 1.58 1.68 1.61 1.54 1.47 1.45 1.44 1.46 1.44 1.43 1.49 1.46 1.42 1.40 1.35 1.33 1.39 1.39 1.39 1.37 1.31 1.31 1.37 1.47 1.59 1.53 1.59 1.67 1.54 1.56 1.63 1.61 1.65 1.68 1.70 1.66 1.58 1.48 1.49
1.37 1.28 1.37 1.49 1.48 1.54 1.47 1.40 1.34 1.24 1.25 1.35 1.46 1.48 1.44 1.44 1.42 1.47 1.48 1.38 1.28 1.31 1.35 1.38 1.36 1.33 1.32 1.39 1.45 1.56 1.52 1.42 1.43 1.46 1.59 1.64 1.67 1.69 1.73 1.70 1.67 1.65 1.64 1.65
1.32 1.30 1.31 1.30 1.32 1.41 1.32 1.30 1.27 1.27 1.23 1.28 1.39 1.45 1.47 1.46 1.43 1.36 1.38 1.47 1.51 1.48 1.36 1.25 1.28 1.20 1.24 1.39 1.46 1.53 1.59 1.55 1.51 1.50 1.61 1.74 1.76 1.79 1.83 1.79 1.77 1.76 1.72 1.69
1.43 1.46 1.41 1.30 1.29 1.39 1.37 1.29 1.21 1.22 1.20 1.23 1.37 1.47 1.49 1.43 1.39 1.39 1.48 1.55 1.59 1.43 1.20 1.14 1.07 1.09 1.10 1.19 1.30 1.33 1.46 1.54 1.55 1.53 1.56 1.59 1.62 1.63 1.64 1.63 1.65 1.65 1.68 1.75
1.67 1.55 1.45 1.39 1.27 1.23 1.30 1.31 1.31 1.28 1.22 1.24 1.38 1.41 1.44 1.36 1.27 1.33 1.48 1.51 1.43 1.22 1.05 1.11 1.10 1.09 1.01 1.05 1.12 1.15 1.30 1.45 1.52 1.50 1.47 1.49 1.47 1.41 1.39 1.46 1.57 1.67 1.71 1.74
1.64 1.47 1.31 1.21 1.24 1.31 1.27 1.27 1.30 1.36 1.42 1.50 1.47 1.41 1.42 1.40 1.32 1.34 1.34 1.38 1.26 1.20 1.00 0.98 1.05 1.08 1.03 0.96 0.93 1.12 1.27 1.38 1.44 1.45 1.45 1.48 1.51 1.46 1.39 1.42 1.52 1.57 1.61 1.60
1.51 1.37 1.32 1.29 1.31 1.38 1.34 1.31 1.33 1.36 1.43 1.55 1.61 1.59 1.55 1.47 1.39 1.39 1.42 1.27 1.11 1.09 1.02 1.04 1.07 1.03 0.98 0.91 0.94 1.05 1.12 1.20 1.23 1.25 1.28 1.38 1.50 1.54 1.50 1.42 1.36 1.37 1.46 1.50
1.55 1.45 1.39 1.30 1.29 1.38 1.49 1.48 1.44 1.40 1.34 1.40 1.45 1.48 1.50 1.47 1.45 1.37 1.45 1.46 1.27 1.07 1.02 1.10 1.02 0.93 0.95 0.96 1.05 1.12 1.15 1.17 1.18 1.22 1.28 1.36 1.50 1.57 1.52 1.41 1.29 1.23 1.30 1.44
1.55 1.50 1.47 1.46 1.42 1.41 1.42 1.43 1.40 1.34 1.26 1.29 1.23 1.26 1.35 1.43 1.53 1.54 1.52 1.44 1.37 1.24 1.09 1.04 1.01 0.95 0.90 0.98 1.09 1.15 1.14 1.13 1.17 1.24 1.27 1.30 1.34 1.38 1.44 1.40 1.28 1.20 1.19 1.27
1.60 1.48 1.41 1.45 1.47 1.40 1.34 1.38 1.50 1.51 1.46 1.46 1.35 1.25 1.26 1.37 1.48 1.53 1.52 1.41 1.22 1.13 1.05 1.02 0.96 0.93 0.88 0.95 1.02 1.09 1.12 1.14 1.14 1.11 1.07 1.07 1.07 1.04 1.06 1.11 1.14 1.17 1.18 1.14
1.51 1.42 1.35 1.31 1.25 1.18 1.25 1.33 1.42 1.52 1.54 1.49 1.39 1.23 1.23 1.34 1.44 1.43 1.32 1.27 1.17 1.05 0.95 0.84 0.78 0.79 0.83 0.85 0.87 0.89 0.94 0.96 0.98 1.07 1.17 1.21 1.05 0.89 0.85 0.90 0.96 1.02 1.04 1.01